[[{"header":{"parameterUnit":"m.s-1","parameterCategory":1,"la1":30.2991,"la2":30.254,"lo1":-89.0895,"lo2":-89.0444,"dy":0.0017,"dx":0.0017,"nx":28,"ny":28,"refTime":"2025-01-22T09:00:00:Z","depth":0,"parameterNumber":2,"parameterNumberName":"U-component_of_WINDS"},"data":[0,0,0,0,0,0,0,0,0,0,0,0,0,0,0,0,0,0,0,0,0,0,0,0,0,0,0,0,0,0,0,0,0,0,0,0,0,0,0,0,0,0,0,0,0,0,0,0,0,0,0,0,0,0,0,0,0,0,0.7784,0.7784,0,0.781,0.781,0.781,0.7812,0.7812,0.7812,0.7811,0.7837,0.7838,0.7839,0,0,0,0,0,0,0,0,0,0,0,0,0,0.7735,0.7736,0.7784,0.7784,0.7784,0.781,0.781,0.781,0.7812,0.7812,0.7811,0.7811,0.7836,0.7838,0.7839,0,0,0,0,0,0,0,0,0,0,0,0,0,0.7758,0.7737,0.7784,0.7788,0.7789,0.781,0.781,0.781,0.7812,0.7812,0.7811,0.7811,0.7836,0.7837,0.7839,0.7856,0,0,0.7843,0.7844,0,0,0,0,0,0,0,0,0.7757,0.776,0.7787,0.7788,0.7789,0.7807,0.7802,0.7826,0.7812,0.7803,0.7811,0.7811,0.7827,0.7829,0.7835,0.7857,0.7859,0.7843,0.7844,0.7845,0.7845,0,0,0,0,0,0,0,0.7755,0.7759,0.7794,0.7788,0.7789,0.7789,0.7792,0.7807,0.7817,0.7804,0.7804,0.7807,0.7828,0.7834,0.7836,0.7859,0.7843,0.7845,0.7845,0.7846,0.7897,0.7898,0,0,0,0,0,0,0.7753,0.7758,0.7793,0.7795,0.7772,0.779,0.7793,0.7802,0.7817,0.7819,0.7808,0.7807,0.7832,0.7834,0.7837,0.7858,0.7845,0.7846,0.7847,0.7897,0.7898,0.7898,0,0,0,0,0,0,0.7752,0.7756,0.7792,0.7776,0.7781,0.7792,0.7801,0.7803,0.7809,0.782,0.7822,0.7812,0.7831,0.7835,0.7852,0.7859,0.7847,0.7848,0.7896,0.7897,0.7898,0.7902,0,0,0,0,0,0,0.7751,0.7756,0.7763,0.7776,0.7782,0.7807,0.7801,0.7803,0.7811,0.7811,0.7825,0.7826,0.7831,0.7849,0.7853,0.7861,0.7849,0.7896,0.7897,0.7898,0.7901,0.7903,0.7904,0,0,0,0,0,0.7749,0.7762,0.7763,0.7767,0.7791,0.7807,0.781,0.7816,0.7812,0.7819,0.7826,0.7826,0.7858,0.7851,0.7855,0.7864,0.7895,0.7896,0.7898,0.79,0.7902,0.7904,0,0,0,0,0,0,0.7749,0.7764,0.7765,0.7783,0.7794,0.7808,0.7816,0.7818,0.7829,0.7829,0.7835,0.7838,0.7854,0.7861,0.7853,0.7882,0.7876,0.7878,0.7877,0.7879,0.788,0.7879,0.785,0,0,0,0,0,0.7751,0.7763,0.7776,0.7791,0.7797,0.7806,0.7813,0.7817,0.7828,0.7832,0.784,0.7851,0.7864,0.7872,0.7884,0.7902,0.7905,0.791,0.7912,0.7913,0.7914,0.7925,0.7927,0.7902,0.7902,0.7902,0,0,0.7755,0.7765,0.7773,0.7791,0.78,0.7813,0.7809,0.7823,0.7832,0.7834,0.7851,0.7857,0.787,0.7887,0.7896,0.7893,0.7922,0.7914,0.7915,0.7916,0.7926,0.7929,0.7931,0.7903,0.7903,0.7902,0,0,0.777,0.7779,0.7793,0.7801,0.7815,0.7821,0.7824,0.7838,0.7842,0.7859,0.7861,0.7872,0.7893,0.7902,0.7909,0.7928,0.7929,0.7932,0.794,0.795,0.7952,0.7954,0.7961,0.7963,0.7934,0.7934,0.7934,0,0.7774,0.7793,0.7799,0.7813,0.7821,0.7824,0.7838,0.7846,0.7863,0.7868,0.7865,0.7892,0.7901,0.7921,0.7926,0.7931,0.7936,0.793,0.7951,0.7953,0.7955,0.7962,0.7964,0.7934,0.7934,0.7934,0.7934,0,0.7797,0.7811,0.782,0.7837,0.7846,0.786,0.7868,0.7877,0.788,0.7886,0.7903,0.7914,0.7928,0.7933,0.7936,0.7954,0.7952,0.795,0.7945,0.7958,0.7964,0.7967,0.7934,0.7934,0.7934,0.7934,0,0,0.7812,0.7833,0.7836,0.7844,0.7859,0.7869,0.7883,0.7898,0.7905,0.7917,0.7929,0.7947,0.7946,0.7954,0.7957,0.7967,0.7981,0.7964,0.7964,0.7967,0.8002,0.8004,0.8007,0.7982,0.7982,0.7983,0.8001,0,0.7829,0.7854,0.7861,0.7882,0.7895,0.7898,0.791,0.7921,0.7927,0.7939,0.7946,0.7959,0.7956,0.7961,0.797,0.7977,0.7988,0.7976,0.7993,0.7993,0.799,0.801,0.8011,0.8029,0.8004,0.8004,0.8005,0,0.7852,0.7864,0.7887,0.7901,0.7907,0.7918,0.7932,0.7943,0.7955,0.7959,0.7969,0.7972,0.7987,0.798,0.8001,0.7992,0.8,0.8004,0.8005,0.8007,0.8,0.8013,0.8034,0.8037,0.8009,0.8008,0.8008,0,0.7861,0.7883,0.79,0.7907,0.7923,0.7931,0.7938,0.795,0.7959,0.7971,0.7977,0.799,0.7998,0.8008,0.8015,0.801,0.8035,0.8029,0.8038,0.8038,0.8044,0.8043,0.8067,0.8048,0.8048,0.8048,0.8048,0,0.7879,0.7893,0.7905,0.7915,0.7931,0.7938,0.7953,0.7961,0.7971,0.7983,0.7986,0.7997,0.8005,0.8017,0.8022,0.8039,0.8042,0.8045,0.8047,0.8045,0.8045,0.805,0.8049,0.8049,0.8048,0.8048,0.8048,0,0.7892,0.79,0.7919,0.7933,0.7937,0.7948,0.7961,0.7971,0.7978,0.7992,0.7996,0.8007,0.8021,0.8029,0.8047,0.805,0.8069,0.8069,0.8065,0.8065,0.8074,0.8073,0.8103,0.8107,0.8085,0.8085,0.8085,0,0.7903,0.7914,0.793,0.7938,0.7946,0.7959,0.7968,0.7975,0.7984,0.7999,0.8008,0.8022,0.8035,0.8058,0.8067,0.808,0.8081,0.809,0.8083,0.8082,0.8082,0.8081,0.8082,0.8092,0.8092,0.8092,0.8092,0,0.7922,0.7925,0.7938,0.7953,0.7963,0.7975,0.7987,0.7993,0.8002,0.8013,0.8028,0.8037,0.8056,0.807,0.8085,0.8092,0.8094,0.8094,0.8097,0.8096,0.8093,0.8095,0.8068,0.8094,0.8094,0.8093,0.8093,0.8093,0.7934,0.7944,0.7957,0.7971,0.7981,0.7992,0.8002,0.8011,0.8023,0.8039,0.8043,0.8059,0.8071,0.8091,0.8099,0.8111,0.8109,0.8114,0.8115,0.8116,0.8116,0.8091,0.8114,0.8114,0.8114,0.8114,0.8114,0,0.7953,0.7962,0.7975,0.7991,0.8003,0.8004,0.8017,0.8026,0.804,0.8052,0.8064,0.8081,0.8096,0.8106,0.8121,0.8129,0.813,0.8132,0.8132,0.8134,0.8117,0.8113,0.8131,0.8131,0.8131,0.8131,0.8131,0.8131,0.7965,0.7982,0.7987,0.801,0.8018,0.8034,0.8041,0.8051,0.8061,0.808,0.8092,0.8099,0.811,0.8126,0.8139,0.8142,0.8147,0.815,0.8152,0.8137,0.8135,0.8133,0.8129,0.8151,0.8151,0.8168,0.8168,0.8168]},{"header":{"parameterUnit":"m.s-1","parameterCategory":1,"la1":30.2991,"la2":30.254,"lo1":-89.0895,"lo2":-89.0444,"dy":0.0017,"dx":0.0017,"nx":28,"ny":28,"refTime":"2025-01-22T09:00:00:Z","depth":0,"parameterNumber":3,"parameterNumberName":"V-component_of_WINDS"},"data":[0,0,0,0,0,0,0,0,0,0,0,0,0,0,0,0,0,0,0,0,0,0,0,0,0,0,0,0,0,0,0,0,0,0,0,0,0,0,0,0,0,0,0,0,0,0,0,0,0,0,0,0,0,0,0,0,0,0,-2.8543,-2.8544,0,-2.8599,-2.86,-2.86,-2.8587,-2.8586,-2.8585,-2.8584,-2.864,-2.8643,-2.8645,0,0,0,0,0,0,0,0,0,0,0,0,0,-2.8424,-2.8427,-2.8543,-2.8544,-2.8544,-2.8599,-2.86,-2.8601,-2.8587,-2.8586,-2.8584,-2.8583,-2.8639,-2.8642,-2.8645,0,0,0,0,0,0,0,0,0,0,0,0,0,-2.8478,-2.8427,-2.8543,-2.8544,-2.8545,-2.8599,-2.86,-2.8601,-2.8587,-2.8586,-2.8584,-2.8583,-2.8638,-2.8642,-2.8646,-2.8702,0,0,-2.8657,-2.8659,0,0,0,0,0,0,0,0,-2.8475,-2.8482,-2.8543,-2.8544,-2.8545,-2.8584,-2.8579,-2.8635,-2.8588,-2.8571,-2.8584,-2.8582,-2.8623,-2.8628,-2.8642,-2.8704,-2.8707,-2.8658,-2.866,-2.8662,-2.8663,0,0,0,0,0,0,0,-2.8471,-2.848,-2.8565,-2.8544,-2.8545,-2.8542,-2.8548,-2.8589,-2.8605,-2.8572,-2.8572,-2.8579,-2.8623,-2.8638,-2.8643,-2.8708,-2.8658,-2.8661,-2.8663,-2.8665,-2.8821,-2.8823,0,0,0,0,0,0,-2.8467,-2.8477,-2.8563,-2.8567,-2.8505,-2.8546,-2.8552,-2.8573,-2.8605,-2.8608,-2.858,-2.8578,-2.8633,-2.8639,-2.8645,-2.8715,-2.8662,-2.8665,-2.8667,-2.8819,-2.8821,-2.8824,0,0,0,0,0,0,-2.8464,-2.8474,-2.8561,-2.8522,-2.8532,-2.8549,-2.8573,-2.8575,-2.8591,-2.8611,-2.8613,-2.8593,-2.8632,-2.864,-2.8688,-2.8716,-2.8667,-2.867,-2.8817,-2.882,-2.8823,-2.8853,0,0,0,0,0,0,-2.8461,-2.8474,-2.8495,-2.8522,-2.8534,-2.8603,-2.8575,-2.8578,-2.8597,-2.8595,-2.8623,-2.8626,-2.8631,-2.8683,-2.8692,-2.872,-2.8673,-2.8815,-2.8818,-2.8822,-2.8849,-2.8856,-2.8862,0,0,0,0,0,-2.8457,-2.85,-2.8496,-2.8506,-2.8561,-2.8605,-2.8612,-2.8617,-2.8599,-2.8621,-2.8634,-2.8625,-2.8711,-2.8688,-2.8698,-2.8728,-2.8813,-2.8817,-2.8821,-2.8846,-2.8855,-2.8862,0,0,0,0,0,0,-2.8475,-2.8504,-2.8499,-2.8553,-2.8577,-2.8603,-2.863,-2.8625,-2.8654,-2.8651,-2.8655,-2.8662,-2.8712,-2.8724,-2.8698,-2.8785,-2.876,-2.8766,-2.8775,-2.8783,-2.879,-2.8786,-2.8676,0,0,0,0,0,-2.8485,-2.8518,-2.8542,-2.8587,-2.8599,-2.8613,-2.8632,-2.8634,-2.8658,-2.8668,-2.8685,-2.8709,-2.8741,-2.8763,-2.8794,-2.8851,-2.8858,-2.8876,-2.8883,-2.8888,-2.8894,-2.8927,-2.8937,-2.8837,-2.8837,-2.8837,0,0,-2.8507,-2.8527,-2.8547,-2.8591,-2.861,-2.8645,-2.8621,-2.8658,-2.8684,-2.8673,-2.8721,-2.8734,-2.8761,-2.8815,-2.884,-2.8827,-2.8923,-2.8893,-2.8897,-2.8901,-2.8933,-2.8942,-2.895,-2.884,-2.884,-2.8839,0,0,-2.8564,-2.8582,-2.8623,-2.8642,-2.8671,-2.868,-2.869,-2.8717,-2.8726,-2.8774,-2.8767,-2.8798,-2.8854,-2.8874,-2.8892,-2.8959,-2.8953,-2.8969,-2.9003,-2.9036,-2.9043,-2.905,-2.9076,-2.9085,-2.8975,-2.8975,-2.8975,0,-2.8587,-2.8639,-2.8644,-2.8683,-2.8703,-2.8696,-2.8738,-2.8757,-2.8794,-2.8808,-2.8794,-2.8866,-2.8883,-2.8943,-2.8959,-2.8973,-2.8986,-2.8967,-2.9042,-2.9049,-2.9056,-2.9081,-2.909,-2.8977,-2.8977,-2.8976,-2.8976,0,-2.8668,-2.8704,-2.8733,-2.8771,-2.8795,-2.8835,-2.8846,-2.8869,-2.887,-2.888,-2.893,-2.8951,-2.8988,-2.9002,-2.9001,-2.9062,-2.9054,-2.9041,-2.9015,-2.9067,-2.9091,-2.91,-2.898,-2.8979,-2.8978,-2.8978,0,0,-2.8738,-2.8779,-2.879,-2.8808,-2.884,-2.8869,-2.8909,-2.8945,-2.8966,-2.8992,-2.9027,-2.9075,-2.9064,-2.9084,-2.9086,-2.9115,-2.917,-2.9099,-2.9099,-2.9113,-2.924,-2.9251,-2.9262,-2.9165,-2.9167,-2.9168,-2.9238,0,-2.8799,-2.8871,-2.8878,-2.8942,-2.8977,-2.8972,-2.9007,-2.9031,-2.9042,-2.9074,-2.9086,-2.9121,-2.9103,-2.9115,-2.9143,-2.9157,-2.9196,-2.9152,-2.9199,-2.92,-2.9194,-2.9274,-2.9285,-2.935,-2.9247,-2.9249,-2.925,0,-2.8881,-2.8912,-2.898,-2.901,-2.9025,-2.9056,-2.9092,-2.9121,-2.9149,-2.9155,-2.9179,-2.9178,-2.922,-2.9193,-2.9252,-2.9222,-2.9241,-2.9252,-2.9254,-2.926,-2.9229,-2.9283,-2.937,-2.9381,-2.9264,-2.9263,-2.9262,0,-2.8928,-2.8986,-2.9035,-2.905,-2.9086,-2.9109,-2.9124,-2.915,-2.9172,-2.9203,-2.9217,-2.9252,-2.9271,-2.9298,-2.9307,-2.9286,-2.9367,-2.9339,-2.9374,-2.9374,-2.9392,-2.9391,-2.9486,-2.9402,-2.9402,-2.9402,-2.9401,0,-2.8997,-2.904,-2.9057,-2.9087,-2.9136,-2.9143,-2.919,-2.9204,-2.9228,-2.9262,-2.9258,-2.929,-2.9298,-2.9332,-2.9339,-2.9388,-2.9396,-2.9403,-2.9405,-2.9405,-2.9404,-2.9418,-2.9415,-2.9404,-2.9404,-2.9403,-2.9403,0,-2.9058,-2.9071,-2.9125,-2.9154,-2.9163,-2.9197,-2.9223,-2.9252,-2.9264,-2.9307,-2.9317,-2.9335,-2.9374,-2.9385,-2.9432,-2.9437,-2.9495,-2.9491,-2.9486,-2.9487,-2.9522,-2.9519,-2.963,-2.9646,-2.955,-2.9551,-2.9552,0,-2.9102,-2.9135,-2.9169,-2.9192,-2.9209,-2.9245,-2.9269,-2.9277,-2.9301,-2.9337,-2.9362,-2.9401,-2.9433,-2.9496,-2.9514,-2.955,-2.9548,-2.9585,-2.9554,-2.9553,-2.9551,-2.955,-2.9554,-2.9591,-2.9592,-2.9593,-2.9593,0,-2.918,-2.9185,-2.9219,-2.9256,-2.9285,-2.9314,-2.9342,-2.936,-2.9373,-2.94,-2.9441,-2.9466,-2.9515,-2.9554,-2.9592,-2.9608,-2.9604,-2.9603,-2.9613,-2.9614,-2.9611,-2.9615,-2.9504,-2.9601,-2.96,-2.9599,-2.9599,-2.9599,-2.9235,-2.9265,-2.9295,-2.9333,-2.9356,-2.9382,-2.9413,-2.9429,-2.9463,-2.9504,-2.9507,-2.9552,-2.958,-2.963,-2.9648,-2.9683,-2.9673,-2.9687,-2.9691,-2.9695,-2.9699,-2.9604,-2.969,-2.9689,-2.9689,-2.9689,-2.9689,0,-2.9315,-2.9334,-2.9369,-2.941,-2.944,-2.9434,-2.9465,-2.9491,-2.9531,-2.9558,-2.959,-2.9638,-2.9677,-2.9698,-2.9736,-2.9761,-2.976,-2.9771,-2.977,-2.9774,-2.9705,-2.9693,-2.9771,-2.9771,-2.9771,-2.9771,-2.9771,-2.9771,-2.936,-2.9411,-2.942,-2.9483,-2.9502,-2.9547,-2.9566,-2.9591,-2.9613,-2.9667,-2.9699,-2.9713,-2.9738,-2.9779,-2.9815,-2.982,-2.9835,-2.9847,-2.9852,-2.9787,-2.9779,-2.9771,-2.976,-2.985,-2.985,-2.9918,-2.9919,-2.9919]}]]